Flag Weather past 2 weeks in São José do Rio Preto, São Paulo, Brazil

Now
72 °F

Drizzle. Partly sunny.


Feels Like: 67 °F
Forecast: 73 / 86 °F
Wind: 2 mph from North

Location: Leite Lopes / Ribeir

Current Time: Nov 27, 2014 at 10:31:39 AM

Latest Report: Nov 27, 2014 at 10:00 AM


Visibility: 1 mi

Pressure: 29.95 "Hg

Humidity: 94%

Dew point: 70 °F

Location of São José do Rio PretoLocation

Historic Weather in São José do Rio Preto — Graph

°F

São José do Rio Preto temperature yesterday

Maximum temperature yesterday: 84 °F (at 4:00 PM)
Minimum temperature yesterday: 70 °F (at 6:00 AM)
Average temperature yesterday: 75 °F

Past Weeks' High & Low Weather Summary

 TemperatureHumidityPressure
High95 °F (Nov 22, 1:00 PM)94% (Nov 26, 6:00 AM)30.04 "Hg (Nov 26, 6:00 AM)
Low63 °F (Nov 16, 6:00 AM)21% (Nov 19, 4:00 PM)29.71 "Hg (Nov 13, 5:00 PM)
Average78 °F61%29.90 "Hg
* Reported Nov 12 9:00 AM — Nov 27 9:00 AM, São José do Rio Preto, Weather by CustomWeather, © 2014

Note: Actual official high and low records may vary slightly from our data, if they occured in-between our weather recording intervals... More about our weather records

Advertising

São José do Rio Preto weather history for previous 24 hours

 ConditionsComfort  
Time TempWeatherWind HumidityBarometerVisibility
9:00 AM
Nov 27
72 °FFog.5 mph94%29.95 "Hg3 mi
8:00 AM72 °FLight rain. Partly sunny.5 mph94%29.92 "Hg2 mi
7:00 AM72 °FLight rain. Partly sunny.3 mph94%29.89 "Hg2 mi
6:00 AM72 °FLight rain. Partly cloudy.1 mph94%29.89 "Hg6 mi
5:00 AM72 °FLight rain. Partly cloudy.No wind94%29.86 "Hg6 mi
4:00 AM72 °FLight rain. Partly cloudy.5 mph88%29.86 "HgN/A
3:00 AM72 °FMostly cloudy.2 mph94%29.86 "HgN/A
2:00 AM73 °FLight rain. Mostly cloudy.5 mph89%29.89 "Hg5 mi
1:00 AM75 °FPassing clouds.No wind83%29.89 "HgN/A
12:00 AM75 °FPassing clouds.5 mph83%29.89 "HgN/A
11:00 PM
Nov 26
75 °FPassing clouds.3 mph78%29.89 "HgN/A
10:00 PM75 °FPartly cloudy.5 mph83%29.86 "HgN/A
9:00 PM75 °FPartly cloudy.3 mph83%29.86 "HgN/A
8:00 PM75 °FClear.7 mph83%29.83 "Hg10 mi
7:00 PM77 °FBroken clouds.9 mph74%29.80 "HgN/A
6:00 PM81 °FLight rain. Partly sunny.17 mph66%29.77 "HgN/A
5:00 PM84 °FScattered clouds.12 mph51%29.77 "HgN/A
4:00 PM84 °FScattered clouds.9 mph55%29.77 "HgN/A
3:00 PM82 °FScattered clouds.15 mph58%29.80 "HgN/A
2:00 PM81 °FPartly sunny.14 mph70%29.86 "HgN/A
1:00 PM79 °FPartly sunny.13 mph74%29.86 "HgN/A
12:00 PM79 °FPartly sunny.12 mph70%29.86 "HgN/A
11:00 AM75 °FPartly sunny.12 mph83%29.89 "HgN/A
10:00 AM73 °FPartly sunny.13 mph83%29.89 "HgN/A
Weather by CustomWeather, © 2014

See weather overviewHow to use our weather pages